RH
100 100 100 97 100 100 100 100 100 100 96 84 95 95 100 100 100 100 87 76 73 89 81 58 59 50 42 34 29 27 25 26 26 29 31 32 33 34 34 35 35 35 33
100 100 100 100 100 100 100 100 90 97 100 100 94 100 100 100 69 84 75 95 90 69 60 58 43 39 35 30 28 30 28 32 36 39 40 39 38 38 40 40 41 41 40
100 100 100 100 100 100 100 100 100 94 83 92 68 72 95 99 99 100 100 91 61 54 47 41 38 36 34 33 32 31 35 39 40 38 41 41 43 49 53 52 53 54 50
100 100 100 100 100 100 100 98 100 99 100 99 83 85 74 96 100 97 85 69 59 44 38 33 30 28 28 26 28 35 42 48 45 46 48 49 53 59 58 54 52 52 53
100 100 100 100 99 96 99 99 100 100 100 95 100 100 100 98 87 70 64 54 42 36 30 28 31 28 31 33 40 51 53 49 48 50 51 51 55 57 59 63 65 63 58
100 100 100 98 98 99 97 100 98 85 85 100 100 100 99 80 69 60 53 46 40 40 40 39 38 44 58 59 55 52 47 49 51 50 51 51 58 66 70 68 69 72 70
100 100 98 100 100 100 100 100 100 100 100 100 100 84 73 70 60 53 45 41 45 50 51 53 55 49 46 48 47 50 53 54 50 54 56 62 66 66 63 65 70 72 73
100 100 100 100 100 100 100 100 100 93 100 95 75 64 58 50 46 52 80 72 67 64 55 50 48 47 45 46 47 46 48 53 55 60 62 67 66 67 69 75 79 84 85
100 100 100 100 96 100 100 100 98 93 80 67 56 53 44 42 41 42 40 55 64 58 52 50 43 40 46 49 52 50 52 52 55 59 62 64 70 78 71 61 53 49 44
89 100 99 92 100 100 87 82 68 56 60 54 53 42 39 36 42 52 53 40 38 44 42 45 48 48 49 50 48 46 49 52 56 62 64 65 59 52 46 37 28 21 18
68 85 97 89 80 66 62 64 74 68 64 53 41 46 45 52 60 54 54 56 50 40 37 40 49 50 54 48 45 50 53 59 64 59 52 48 40 31 22 17 15 13 10
85 77 67 64 66 91 81 73 85 70 65 60 47 53 51 62 59 48 58 57 46 47 46 48 48 50 44 47 51 53 58 61 59 48 37 28 22 16 12 10 7 6 5
58 62 69 78 100 100 100 100 100 85 60 56 49 56 56 66 70 61 56 46 48 63 63 58 52 44 44 56 65 62 60 59 44 36 28 18 12 9 7 5 4 3 3
60 73 83 98 99 100 100 100 83 52 48 52 52 66 75 77 61 60 59 65 84 73 59 59 51 46 60 60 58 53 49 37 33 28 18 12 8 6 4 3 3 3 3
74 72 94 100 98 89 99 74 74 71 72 66 87 96 80 69 66 72 75 84 73 64 62 62 60 58 51 54 54 49 39 32 25 16 11 7 5 4 3 3 3 3 3
80 98 100 100 100 92 86 99 100 100 98 94 88 82 73 70 82 94 92 75 62 60 66 69 64 58 58 56 52 42 31 25 16 12 9 5 4 4 4 3 3 3 3
100 100 100 98 91 100 100 100 100 100 93 99 87 73 77 95 93 86 68 65 71 73 61 73 71 66 61 54 41 30 28 20 13 9 6 5 4 4 4 4 4 4 3
89 91 98 100 100 100 99 100 98 99 94 83 70 78 96 95 89 75 77 79 77 73 70 68 70 65 62 51 32 23 20 13 11 6 4 5 5 4 4 4 3 3 4
69 82 100 100 100 100 100 99 98 84 76 71 85 93 88 78 72 84 84 76 68 71 65 65 63 62 48 35 23 19 12 10 7 5 5 6 5 4 4 4 3 3 3
88 98 100 100 100 99 91 85 76 72 85 99 100 92 84 86 89 79 77 78 76 68 68 69 64 48 31 27 20 10 9 7 5 5 6 6 5 4 4 4 4 4 3
88 93 93 90 86 94 85 77 85 98 98 92 92 94 96 95 79 71 73 69 70 70 72 60 42 29 23 14 13 9 6 5 5 5 6 5 4 4 4 4 4 4 3
82 94 94 98 96 87 93 99 100 100 97 94 100 99 85 78 70 72 69 83 87 76 61 51 34 27 18 12 8 6 5 5 6 5 5 4 4 4 4 4 4 4 4
100 100 100 100 99 100 100 100 97 92 99 99 90 94 84 78 80 80 77 74 68 64 53 38 29 28 16 11 6 5 5 5 5 4 4 4 4 4 4 4 5 4 4
100 100 100 100 100 99 97 95 99 100 98 99 92 73 76 79 89 80 73 66 59 50 36 23 16 12 10 7 5 5 5 5 4 4 4 4 4 5 5 5 5 5 4
100 100 100 100 100 98 100 99 90 97 83 71 76 76 71 79 80 81 68 59 46 40 27 16 10 8 6 5 5 5 4 4 4 4 4 4 4 5 5 5 5 5 5
96 97 98 94 85 79 78 78 74 66 62 65 73 78 89 81 79 71 58 50 35 25 18 12 7 5 4 5 5 4 3 3 4 4 4 4 4 5 5 5 6 5 5
Wind_Speed
54 57 62 60 59 59 57 57 55 62 66 65 70 57 54 62 66 71 78 82 85 81 82 86 82 78 78 72 70 68 70 69 68 65 64 65 67 68 67 67 66 64 64
57 60 62 60 60 59 60 61 61 66 65 65 63 57 63 74 80 83 84 83 82 82 79 76 75 74 72 71 75 74 75 72 70 70 72 72 72 71 71 73 74 73 72
62 62 66 64 63 64 65 62 57 64 65 62 66 71 73 76 80 83 81 83 81 82 80 78 76 73 71 72 76 78 77 74 75 78 80 80 78 77 74 73 74 75 76
64 68 68 67 66 65 70 69 70 68 63 66 71 73 85 81 84 80 79 83 83 75 76 76 74 76 77 78 79 80 80 80 84 86 87 85 83 81 83 84 85 83 83
60 64 66 63 66 62 62 63 63 66 68 76 77 79 81 75 76 81 80 80 77 77 76 75 78 80 83 84 85 86 86 85 88 89 89 87 86 88 89 91 92 90 85
56 59 62 62 65 65 64 65 69 74 77 77 77 78 77 78 79 75 76 76 73 78 81 84 82 82 84 88 89 88 89 90 92 92 91 91 91 92 95 96 93 90 88
64 62 61 58 61 57 64 69 71 78 77 77 71 72 78 75 75 75 75 75 76 80 82 84 87 90 89 87 88 90 93 96 95 93 94 94 96 98 97 95 95 95 97
51 55 54 55 59 66 68 69 73 74 69 71 76 78 76 74 64 68 79 81 81 85 85 84 88 91 91 93 92 89 89 95 96 96 97 98 99 99 100 101 101 103 104
56 59 60 63 67 66 65 64 67 70 71 74 76 75 69 68 72 74 71 77 84 85 87 91 93 93 93 95 95 96 94 96 95 99 99 101 104 107 109 109 108 108 106
52 53 54 54 56 60 65 70 72 72 70 68 68 67 69 72 74 80 87 82 80 85 89 92 95 97 98 98 98 97 99 99 99 99 104 107 110 112 112 112 109 107 105
50 54 58 58 59 62 65 66 66 67 69 70 66 68 73 76 80 86 90 94 95 94 92 90 93 98 100 101 100 97 101 99 101 106 109 111 111 109 108 108 108 107 106
54 55 55 57 56 56 59 61 62 67 70 71 72 75 77 82 89 90 93 94 95 97 99 100 100 100 102 103 103 104 104 105 107 111 110 108 106 104 103 103 103 102 99
52 52 52 51 41 48 59 64 67 70 72 74 75 79 83 88 95 99 98 98 98 102 105 107 106 103 103 103 106 111 108 110 114 113 110 106 103 101 99 95 92 91 89
48 49 49 48 47 55 67 70 75 76 74 77 80 85 88 94 99 98 98 99 103 106 109 111 111 110 108 108 110 111 112 112 113 110 106 104 101 94 87 85 83 82 81
52 48 51 57 60 63 68 70 72 78 81 84 88 89 94 99 100 100 102 106 109 110 112 113 113 115 115 114 115 115 116 115 110 105 103 100 93 87 81 76 74 73 72
53 53 59 62 62 65 67 71 76 83 86 89 91 95 99 101 101 103 106 110 113 115 113 114 116 120 122 121 120 119 118 112 106 103 100 94 89 82 76 71 66 65 66
57 59 62 64 65 66 71 76 80 86 89 91 96 100 101 103 104 107 110 113 116 117 115 113 119 123 125 125 122 117 116 109 102 96 91 87 85 78 70 64 60 59 61
62 62 62 63 66 72 76 81 86 88 91 94 98 100 103 105 108 112 114 116 117 117 118 118 121 127 127 127 124 114 109 105 101 92 85 81 77 71 66 60 56 55 57
60 63 64 67 72 78 82 85 87 91 94 97 99 101 105 108 110 113 115 116 118 119 122 124 126 125 126 127 118 112 103 98 93 86 79 75 71 66 63 58 54 53 53
62 65 69 72 76 80 84 86 88 91 95 99 101 104 106 108 111 114 116 118 120 123 126 128 126 127 124 120 118 106 100 95 85 80 74 68 66 64 61 56 52 51 50
66 69 72 76 80 82 85 88 90 93 96 99 101 103 104 108 112 116 120 121 124 127 129 130 131 126 122 115 108 103 94 87 81 73 68 65 61 60 58 55 51 46 49
67 72 75 77 79 82 85 89 91 94 97 98 98 102 108 113 116 117 117 119 123 127 126 131 127 125 122 114 104 97 89 81 75 71 64 63 57 55 53 51 52 48 46
65 69 73 77 81 85 88 90 93 95 96 98 103 107 111 116 119 120 121 121 121 124 127 124 120 120 115 111 100 92 84 76 72 68 61 59 55 52 50 48 50 48 44
69 72 77 81 85 87 90 92 93 94 98 104 107 111 115 116 118 120 120 120 125 126 125 121 116 108 104 101 94 84 79 72 69 63 58 57 52 50 49 45 48 46 43
72 75 78 81 84 86 87 93 97 100 104 109 111 115 116 115 117 120 123 127 124 120 122 118 110 103 97 91 87 80 72 67 67 61 54 53 49 48 47 44 45 45 43
72 76 80 85 89 93 94 98 104 108 109 110 113 113 114 116 118 121 125 124 119 118 115 111 105 98 90 84 81 74 68 64 60 59 52 50 45 44 46 41 41 43 40
Wind_Direction
245 253 257 261 263 269 269 270 270 269 275 284 286 285 283 278 283 287 290 293 295 295 296 299 297 298 298 296 296 297 297 297 297 295 294 293 291 291 289 286 284 282 280
247 253 256 259 260 263 265 271 273 275 281 284 283 275 280 280 284 287 290 292 295 297 298 296 296 294 293 297 299 299 300 299 298 297 295 294 291 288 284 282 281 280 278
250 253 256 264 265 271 271 273 275 279 285 283 283 278 283 286 286 291 289 293 295 296 298 296 296 295 297 297 297 299 298 295 296 297 298 297 294 291 287 283 281 281 280
255 257 260 265 269 271 273 276 280 282 281 279 282 283 286 286 291 294 293 294 294 295 298 298 297 297 297 298 299 299 298 298 298 298 298 296 293 290 288 286 285 282 280
259 260 264 270 273 274 275 278 278 280 280 282 284 285 287 289 292 294 295 296 299 299 296 296 298 299 300 301 301 300 298 297 296 296 295 294 291 290 289 288 287 285 282
262 267 272 275 272 278 277 277 281 284 283 282 286 288 290 291 294 294 298 300 301 302 303 302 301 302 300 299 298 297 297 296 295 295 294 293 292 291 291 290 288 286 284
264 270 274 273 274 270 273 277 280 280 283 286 287 289 291 293 296 297 297 300 302 302 302 301 300 299 297 295 296 298 299 297 296 295 294 293 292 291 290 289 288 286 285
261 258 258 262 267 275 276 279 279 281 284 285 288 289 292 293 293 297 302 303 305 302 299 297 297 298 299 300 299 296 296 295 295 295 295 293 293 292 291 288 285 283 281
252 260 262 268 273 274 277 279 280 283 285 287 289 292 294 294 295 297 295 297 300 300 299 298 298 298 299 299 299 300 298 297 296 296 296 296 295 294 291 288 285 282 279
265 268 272 271 274 276 277 280 282 284 287 288 294 296 295 297 300 302 300 297 296 298 298 300 300 300 300 300 300 300 299 299 299 298 298 297 295 293 291 288 284 280 276
269 272 273 276 277 281 281 284 286 287 290 293 292 296 298 301 302 302 304 303 303 302 300 299 300 301 302 302 301 302 302 302 302 302 300 297 295 291 288 284 282 280 279
270 273 276 280 284 284 284 285 286 290 291 294 296 297 298 300 302 303 302 299 301 303 303 305 304 304 304 304 304 305 305 304 304 303 300 297 294 291 288 285 283 281 279
272 275 277 278 283 289 282 283 287 288 290 293 297 299 299 299 302 302 303 303 305 307 306 305 305 305 305 307 307 308 306 305 306 305 302 299 295 292 290 287 283 281 278
271 274 274 272 266 276 279 280 283 286 292 297 299 299 298 299 301 302 304 306 306 306 307 307 306 307 309 308 307 307 307 308 307 305 302 298 297 295 291 287 284 281 278
271 270 269 273 274 273 281 285 289 293 296 297 298 296 298 300 302 305 307 308 307 306 307 307 308 308 309 310 310 310 310 310 308 305 302 301 299 295 292 288 284 282 278
271 269 270 273 276 280 284 287 289 290 292 293 296 298 299 302 306 307 307 306 305 306 308 308 309 310 310 311 311 312 311 310 307 306 305 302 299 297 294 290 287 282 278
265 268 272 275 278 282 285 286 286 288 292 296 297 300 303 305 306 306 304 305 306 307 307 310 311 311 311 311 311 311 310 309 307 305 304 301 299 297 294 291 287 282 277
266 269 272 275 279 283 285 285 287 290 294 295 299 301 304 305 305 305 305 305 307 307 308 310 310 311 311 311 310 311 311 309 308 306 304 301 298 297 295 292 287 281 276
269 271 276 279 280 281 283 287 290 293 295 298 301 303 303 304 304 304 304 306 306 308 309 309 310 310 310 310 310 311 309 309 307 305 303 300 298 296 293 291 288 281 277
272 274 277 280 283 285 287 290 292 296 298 301 302 303 303 303 303 304 306 307 308 309 309 309 309 309 310 311 311 310 311 309 307 304 302 299 297 295 294 291 287 281 276
277 278 279 282 285 289 291 294 296 298 300 302 302 302 303 303 304 306 307 308 309 309 310 310 311 311 311 311 311 311 310 308 305 303 300 298 296 294 293 291 286 279 278
283 284 286 288 290 293 294 296 299 300 300 300 301 300 302 304 306 307 307 308 308 308 309 310 310 311 311 311 311 311 309 306 305 301 300 297 295 293 291 289 285 281 277
289 290 292 293 294 296 297 298 298 299 299 299 301 303 304 306 307 307 307 307 308 309 309 307 309 309 310 309 310 309 307 306 302 300 299 296 294 292 289 286 283 281 277
295 295 295 296 296 296 296 298 298 299 299 299 300 302 304 306 306 306 307 308 309 310 308 308 309 310 309 308 308 307 305 305 301 300 298 295 293 291 288 285 283 281 277
295 295 296 296 296 296 297 296 296 297 297 298 301 303 304 305 306 307 309 309 310 309 309 309 310 310 308 307 306 306 305 303 301 299 297 294 293 289 286 284 281 280 277
293 294 294 294 295 296 296 296 296 294 297 302 304 304 305 306 307 308 308 309 309 309 309 310 310 309 308 307 306 306 304 302 301 298 297 294 291 288 283 282 279 277 274